When you browse on this site, cookies collect data to enhance your experience and personalize the content and advertising you see.
Visit our Privacy Policy to learn more. By continuing to use the site, you agree to this use of cookies and data.

Météo par heure à Richmond

Ce jour, 5 Août, Mercredi

Heure Température Précipitation Vent Pression Humidité
00:00 +26°C° 0.4 mm 2 m/s 757 mmHg 85%
01:00 +25°C° 0.4 mm 2 m/s 757 mmHg 89%
02:00 +25°C° 0 mm 1 m/s 757 mmHg 90%
03:00 +24°C° 0 mm 1 m/s 757 mmHg 90%
04:00 +24°C° 0 mm 1 m/s 757 mmHg 91%
05:00 +24°C° 0 mm 1 m/s 758 mmHg 90%
06:00 +25°C° 0 mm 1 m/s 759 mmHg 88%
07:00 +24°C° 0 mm 0 m/s 759 mmHg 86%
08:00 +28°C° 0 mm 1 m/s 759 mmHg 77%
09:00 +30°C° 0 mm 1 m/s 759 mmHg 67%
10:00 +32°C° 0 mm 1 m/s 759 mmHg 57%
11:00 +33°C° 0.1 mm 1 m/s 759 mmHg 53%
12:00 +35°C° 0.1 mm 1 m/s 759 mmHg 50%
13:00 +36°C° 0.1 mm 1 m/s 759 mmHg 46%
14:00 +35°C° 0.1 mm 1 m/s 759 mmHg 48%
15:00 +35°C° 0.1 mm 1 m/s 758 mmHg 50%
16:00 +34°C° 0.1 mm 1 m/s 758 mmHg 52%
17:00 +33°C° 0 mm 1 m/s 758 mmHg 58%
18:00 +31°C° 0 mm 1 m/s 758 mmHg 65%
19:00 +29°C° 0 mm 1 m/s 758 mmHg 71%
20:00 +28°C° 1.1 mm 1 m/s 759 mmHg 76%
21:00 +27°C° 1.1 mm 1 m/s 759 mmHg 82%
22:00 +26°C° 1.1 mm 2 m/s 759 mmHg 88%
23:00 +26°C° 0.1 mm 1 m/s 759 mmHg 88%

Demain, 6 Août, Jeudi

Heure Température Précipitation Vent Pression Humidité
00:00 +26°C° 0.1 mm 1 m/s 759 mmHg 87%
01:00 +23°C° 0.1 mm 0 m/s 759 mmHg 87%
02:00 +23°C° 0 mm 0 m/s 759 mmHg 88%
03:00 +23°C° 0 mm 0 m/s 759 mmHg 88%
04:00 +23°C° 0 mm 0 m/s 759 mmHg 88%
05:00 +23°C° 0 mm 0 m/s 759 mmHg 88%
06:00 +24°C° 0 mm 0 m/s 759 mmHg 87%
07:00 +24°C° 0 mm 0 m/s 760 mmHg 86%
08:00 +26°C° 0.4 mm 0 m/s 760 mmHg 79%
09:00 +29°C° 0.4 mm 0 m/s 760 mmHg 72%
10:00 +31°C° 0.4 mm 0 m/s 760 mmHg 64%
11:00 +34°C° 0.5 mm 1 m/s 760 mmHg 59%
12:00 +34°C° 0.5 mm 1 m/s 759 mmHg 53%
13:00 +36°C° 0.5 mm 2 m/s 759 mmHg 48%
14:00 +35°C° 0.1 mm 1 m/s 759 mmHg 49%
15:00 +35°C° 0.1 mm 1 m/s 758 mmHg 50%
16:00 +34°C° 0.1 mm 1 m/s 758 mmHg 52%
17:00 +32°C° 3.4 mm 2 m/s 758 mmHg 64%
18:00 +29°C° 3.4 mm 2 m/s 759 mmHg 76%
19:00 +26°C° 3.4 mm 2 m/s 759 mmHg 88%
20:00 +26°C° 1.9 mm 2 m/s 759 mmHg 88%
21:00 +26°C° 1.9 mm 1 m/s 759 mmHg 88%
22:00 +26°C° 1.9 mm 1 m/s 760 mmHg 88%
23:00 +25°C° 0 mm 1 m/s 759 mmHg 89%

Après-demain, 7 Août, Vendredi

Heure Température Précipitation Vent Pression Humidité
00:00 +23°C° 0 mm 0 m/s 759 mmHg 90%
01:00 +23°C° 0 mm 0 m/s 759 mmHg 90%
02:00 +23°C° 0 mm 0 m/s 759 mmHg 91%
03:00 +22°C° 0 mm 0 m/s 759 mmHg 92%
04:00 +22°C° 0 mm 0 m/s 759 mmHg 92%
05:00 +23°C° 0 mm 0 m/s 759 mmHg 91%
06:00 +23°C° 0 mm 0 m/s 759 mmHg 90%
07:00 +24°C° 0 mm 0 m/s 760 mmHg 89%
08:00 +26°C° 0 mm 0 m/s 760 mmHg 79%
09:00 +29°C° 0 mm 0 m/s 760 mmHg 70%
10:00 +33°C° 0 mm 1 m/s 760 mmHg 60%
11:00 +34°C° 0 mm 1 m/s 760 mmHg 55%
12:00 +35°C° 0 mm 1 m/s 760 mmHg 49%
13:00 +37°C° 0 mm 2 m/s 759 mmHg 44%
14:00 +36°C° 0 mm 1 m/s 759 mmHg 46%
15:00 +35°C° 0 mm 1 m/s 759 mmHg 48%
16:00 +35°C° 0 mm 1 m/s 758 mmHg 50%
17:00 +33°C° 0.4 mm 1 m/s 758 mmHg 57%
18:00 +31°C° 0.4 mm 1 m/s 759 mmHg 64%
19:00 +29°C° 0.4 mm 2 m/s 759 mmHg 72%
20:00 +28°C° 2.9 mm 2 m/s 759 mmHg 74%
21:00 +26°C° 2.9 mm 2 m/s 760 mmHg 76%
22:00 +24°C° 2.9 mm 1 m/s 760 mmHg 78%
23:00 +23°C° 0 mm 1 m/s 760 mmHg 80%

8 Août, Samedi

Heure Température Précipitation Vent Pression Humidité
00:00 +23°C° 0 mm 1 m/s 760 mmHg 83%
01:00 +21°C° 0 mm 0 m/s 760 mmHg 86%
02:00 +21°C° 0 mm 0 m/s 760 mmHg 87%
03:00 +21°C° 0 mm 0 m/s 760 mmHg 88%
04:00 +21°C° 0 mm 0 m/s 760 mmHg 89%
05:00 +21°C° 0 mm 0 m/s 760 mmHg 87%
06:00 +22°C° 0 mm 0 m/s 761 mmHg 86%
07:00 +23°C° 0 mm 0 m/s 761 mmHg 84%
08:00 +25°C° 0 mm 0 m/s 761 mmHg 75%
09:00 +30°C° 0 mm 1 m/s 761 mmHg 65%
10:00 +32°C° 0 mm 1 m/s 761 mmHg 55%
11:00 +34°C° 0 mm 1 m/s 761 mmHg 51%
12:00 +35°C° 0 mm 1 m/s 761 mmHg 47%
13:00 +36°C° 0 mm 1 m/s 761 mmHg 43%
14:00 +36°C° 0 mm 1 m/s 760 mmHg 44%
15:00 +35°C° 0 mm 1 m/s 760 mmHg 45%
16:00 +36°C° 0 mm 2 m/s 760 mmHg 46%
17:00 +34°C° 0 mm 2 m/s 760 mmHg 55%
18:00 +31°C° 0 mm 2 m/s 760 mmHg 63%
19:00 +29°C° 0 mm 1 m/s 760 mmHg 72%
20:00 +28°C° 0 mm 1 m/s 760 mmHg 75%
21:00 +27°C° 0 mm 1 m/s 761 mmHg 78%
22:00 +27°C° 0 mm 1 m/s 761 mmHg 81%
23:00 +26°C° 0 mm 1 m/s 761 mmHg 82%

9 Août, Dimanche

Heure Température Précipitation Vent Pression Humidité
00:00 +26°C° 0 mm 1 m/s 761 mmHg 82%
01:00 +24°C° 0 mm 0 m/s 761 mmHg 83%
02:00 +24°C° 0 mm 0 m/s 761 mmHg 84%
03:00 +23°C° 0 mm 0 m/s 761 mmHg 84%
04:00 +23°C° 0 mm 0 m/s 761 mmHg 85%
05:00 +24°C° 0 mm 0 m/s 761 mmHg 83%
06:00 +24°C° 0 mm 0 m/s 761 mmHg 81%
07:00 +25°C° 0 mm 0 m/s 762 mmHg 80%
08:00 +27°C° 0.1 mm 0 m/s 762 mmHg 71%
09:00 +30°C° 0.1 mm 0 m/s 762 mmHg 62%
10:00 +34°C° 0.1 mm 1 m/s 762 mmHg 53%
11:00 +35°C° 0 mm 1 m/s 762 mmHg 49%
12:00 +36°C° 0 mm 1 m/s 761 mmHg 45%
13:00 +36°C° 0 mm 1 m/s 761 mmHg 41%
14:00 +36°C° 0 mm 1 m/s 761 mmHg 43%
15:00 +35°C° 0 mm 1 m/s 760 mmHg 45%
16:00 +35°C° 0 mm 1 m/s 760 mmHg 46%
17:00 +33°C° 0 mm 1 m/s 760 mmHg 54%
18:00 +31°C° 0 mm 2 m/s 760 mmHg 62%
19:00 +29°C° 0 mm 2 m/s 760 mmHg 70%
20:00 +28°C° 0 mm 2 m/s 760 mmHg 73%
21:00 +27°C° 0 mm 2 m/s 760 mmHg 76%
22:00 +27°C° 0 mm 2 m/s 760 mmHg 78%
23:00 +26°C° 0.2 mm 2 m/s 760 mmHg 81%

10 Août, Lundi

Heure Température Précipitation Vent Pression Humidité
00:00 +26°C° 0.2 mm 2 m/s 760 mmHg 84%
01:00 +25°C° 0.2 mm 1 m/s 760 mmHg 86%
02:00 +25°C° 0.1 mm 1 m/s 760 mmHg 87%
03:00 +25°C° 0.1 mm 1 m/s 760 mmHg 88%
04:00 +24°C° 0.1 mm 1 m/s 760 mmHg 89%
05:00 +25°C° 0 mm 1 m/s 760 mmHg 88%
06:00 +26°C° 0 mm 1 m/s 760 mmHg 87%
07:00 +26°C° 0 mm 1 m/s 760 mmHg 85%
08:00 +28°C° 0 mm 1 m/s 760 mmHg 75%
09:00 +31°C° 0 mm 1 m/s 760 mmHg 65%
10:00 +34°C° 0 mm 2 m/s 760 mmHg 55%
11:00 +35°C° 0 mm 2 m/s 760 mmHg 50%
12:00 +37°C° 0 mm 2 m/s 760 mmHg 44%
13:00 +38°C° 0 mm 2 m/s 759 mmHg 38%
14:00 +38°C° 0 mm 2 m/s 759 mmHg 38%
15:00 +38°C° 0 mm 2 m/s 758 mmHg 38%
16:00 +38°C° 0 mm 2 m/s 758 mmHg 38%
17:00 +36°C° 0 mm 2 m/s 758 mmHg 46%
18:00 +34°C° 0 mm 2 m/s 758 mmHg 53%
19:00 +31°C° 0 mm 1 m/s 758 mmHg 61%
20:00 +30°C° 0.1 mm 2 m/s 758 mmHg 65%
21:00 +29°C° 0.1 mm 2 m/s 758 mmHg 68%
22:00 +28°C° 0.1 mm 2 m/s 758 mmHg 72%
23:00 +28°C° 0.1 mm 2 m/s 758 mmHg 75%
Voir plus